Notices

What's New in latest Release from April 7th, 2021:

- Updated Glossary, including Speed of Maximum Gust, and Total Hourly Precipitation

- Updated national and regional climate services offices contacts and prices information

- Addition of station inventory lists for 1981-2010, 1971-2000, and 1961-1990 Normals.

Please note that as of June 10, 2021 UTC dates are available for all years 2004-present, and DBA is working on populating the remaining years (2003 to 1953).

If you haven't already, please take our survey and provide feedback about our website: https://eccc.sondage-survey.ca/f/LanguageSelection.aspx?s=442ca660-fcf1-47c0-95a9-59707d6fd709

Hourly Data Report for December 01, 2019

SHEARWATER RCS
NOVA SCOTIA
Current Station Operator: ECCC - MSC

44°37'47.000" N
63°30'48.000" W
24.00 m
8205092
71264
AAW

Download Data

Hourly Data (December 2019)
Hourly Data Report for December 1, 2019
TIME
LST
Temp Definition
°C
Dew Point Definition
°C
Rel Hum Definition
%
Precip. Amount Definition
mm

Wind Dir Definition
10's deg

Wind Spd Definition
km/h
Visibility Definition
km
Stn Press Definition
kPa
Hmdx Definition


Wind Chill Definition


Weather Definition


00:00 -1.5 -8.2 60 0.0 33 20   100.00   -7 LegendNANA
01:00 -2.0 -8.6 61 0.0 32 17   100.06   -7 LegendNANA
02:00 -2.4 -9.3 59 0.0 33 20   100.13   -8 LegendNANA
03:00 -2.9 -9.4 61 0.0 33 14   100.22   -8 LegendNANA
04:00 -3.4 -9.6 62 0.0 33 16   100.32   -9 LegendNANA
05:00 -4.0 -9.8 64 0.0 33 15   100.40   -9 LegendNANA
06:00 -4.4 -9.9 65 0.0 33 15   100.51   -10 LegendNANA
07:00 -4.9 -9.9 68 0.0 32 10   100.63   -9 LegendNANA
08:00 -5.2 -10.4 67 0.0 34 19   100.66   -12 LegendNANA
09:00 -4.8 -10.4 65 0.0 32 14   100.77   -10 LegendNANA
10:00 -4.1 -10.6 60 0.0 34 19   100.85   -10 LegendNANA
11:00 -3.5 -10.3 59 0.0 33 18   100.91   -9 LegendNANA
12:00 -2.5 -10.8 53 0.0 34 17   100.92   -8 LegendNANA
13:00 -2.1 -10.8 51 0.0 33 16   100.88   -7 LegendNANA
14:00 -1.9 -10.8 51 0.0 32 16   100.92   -7 LegendNANA
15:00 -1.9 -10.7 51 0.0 32 13   101.02   -6 LegendNANA
16:00 -2.5 -10.4 54 0.0 34 13   101.09   -7 LegendNANA
17:00 -3.6 -9.7 63 0.0 34 9   101.11   -7 LegendNANA
18:00 -4.5 -9.4 69 0.0 35 6   101.15   -7 LegendNANA
19:00 -5.5 -9.5 73 0.0 33 5   101.26   -8 LegendNANA
20:00 -5.3 -8.9 76 0.0 3 7   101.27   -9 LegendNANA
21:00 -5.7 -9.2 76 0.0 35 4   101.27   -8 LegendNANA
22:00 -6.7 -9.5 81 0.0 0 1   101.39   -7 LegendNANA
23:00 -6.4 -8.6 85 0.0 4 4   101.39   -8 LegendNANA

Notes on Data Quality.

Legend

  • E = Estimated
  • M = Missing
  • NA = Not Available*
  • [empty] = Indicates an unobserved value
Date modified: